Date String (YYYY-MM-DD hh:mm:ss) UTC,Instrument flags,Ambient pressure (hPa),Sample flow (lpm),Bypass flow (lpm),Sample temperature (°C),Ambient temperature (°C),ASC tube jacket temperature (°C),LED temperature (°C),Box temperature (°C),Sample RH (%),Span deviation,Mass concentration (μg/m³),Mass concentration (μg/m³),Mass concentration (μg/m³)
DateTimeUTC,F1_M11,P_M11,Q1_M11,Q2_M11,T1_M11,T2_M11,T3_M11,T4_M11,T5_M11,U1_M11,ZSPAN_M11,X0_M11,X2_M11,X1_M11
2021-09-07 09:00:00,,0829.3,5.00,0.00,29.6,28.4,00.0,38.7,31.4,08.4,0001.2,0031.79,0021.01,0019.99
2021-09-07 09:01:00,,0829.3,5.01,0.00,29.7,28.5,00.0,38.7,31.4,08.4,0001.5,0031.80,0021.08,0020.04
2021-09-07 09:02:00,,0829.3,5.00,0.00,29.7,28.6,00.0,38.7,31.4,08.4,0001.9,0032.20,0021.16,0020.08
2021-09-07 09:03:00,,0829.3,5.00,0.00,29.7,28.6,00.0,38.7,31.5,08.4,0002.0,0031.22,0021.17,0020.11
2021-09-07 09:04:00,,0829.4,4.99,0.00,29.8,28.7,00.0,38.8,31.5,08.4,0002.5,0031.33,0021.19,0020.11
2021-09-07 09:05:00,,0829.4,5.00,0.00,29.8,28.8,00.0,38.8,31.5,08.5,0002.5,0031.35,0021.25,0020.11
2021-09-07 09:06:00,,0829.4,5.00,0.00,29.8,28.8,00.0,38.8,31.6,08.4,0002.0,0031.42,0021.28,0020.11
2021-09-07 09:07:00,,0829.4,5.01,0.00,29.8,28.9,00.0,38.8,31.6,08.4,0001.2,0031.65,0021.33,0020.14
2021-09-07 09:08:00,,0829.4,4.99,0.00,29.9,28.9,00.0,38.8,31.6,08.4,0001.1,0031.98,0021.43,0020.21
2021-09-07 09:09:00,,0829.4,4.99,0.00,29.9,28.9,00.0,38.9,31.7,08.4,0000.7,0032.66,0021.47,0020.25
2021-09-07 09:10:00,,0829.4,4.99,0.00,29.9,29.0,00.0,38.9,31.7,08.4,0000.9,0033.33,0021.50,0020.28
2021-09-07 09:11:00,,0829.4,5.00,0.00,29.9,29.0,00.0,38.9,31.7,08.5,0001.3,0034.26,0021.52,0020.31
2021-09-07 09:12:00,,0829.4,5.01,0.00,30.0,28.8,00.0,38.9,31.7,08.3,0000.3,0034.89,0021.55,0020.34
2021-09-07 09:13:00,,0829.3,5.00,0.00,29.9,26.9,00.0,38.9,31.2,08.4,0000.4,0034.12,0021.56,0020.37
2021-09-07 09:14:00,,0829.3,5.01,0.00,29.7,26.3,00.0,38.9,31.0,08.5,0000.8,0034.07,0021.60,0020.38
2021-09-07 09:15:00,,0829.3,5.00,0.00,29.6,26.5,00.0,38.9,31.1,08.4,0000.8,0033.89,0021.63,0020.43
2021-09-07 09:16:00,,0829.3,5.00,0.00,29.6,26.9,00.0,38.8,31.1,08.4,0000.7,0033.90,0021.68,0020.47
2021-09-07 09:17:00,,0829.3,4.98,0.00,29.6,27.3,00.0,38.8,31.1,08.5,0000.9,0034.27,0021.72,0020.51
2021-09-07 09:18:00,,0829.4,5.01,0.00,29.6,27.6,00.0,38.8,31.2,08.5,0001.2,0033.99,0021.78,0020.55
2021-09-07 09:19:00,,0829.4,5.00,0.00,29.6,27.9,00.0,38.7,31.2,08.5,0001.2,0033.35,0021.82,0020.58
2021-09-07 09:20:00,,0829.4,4.99,0.00,29.6,28.0,00.0,38.7,31.3,08.5,0001.5,0032.62,0021.91,0020.62
2021-09-07 09:21:00,,0829.4,5.01,0.00,29.6,28.2,00.0,38.7,31.3,08.5,0001.5,0031.51,0021.92,0020.64
2021-09-07 09:22:00,,0829.4,4.99,0.00,29.6,28.3,00.0,38.7,31.3,08.5,0001.3,0030.36,0021.94,0020.66
2021-09-07 09:23:00,,0829.4,5.00,0.00,29.7,28.4,00.0,38.7,31.4,08.4,0002.1,0029.51,0021.93,0020.69
2021-09-07 09:24:00,,0829.5,5.01,0.00,29.7,28.5,00.0,38.8,31.4,08.4,0002.5,0029.22,0021.88,0020.70
2021-09-07 09:25:00,,0829.5,4.99,0.00,29.7,28.6,00.0,38.8,31.4,08.3,0002.5,0029.19,0021.86,0020.72
2021-09-07 09:26:00,,0829.5,4.99,0.00,29.7,28.6,00.0,38.8,31.5,08.4,0001.8,0029.31,0021.87,0020.73
2021-09-07 09:27:00,,0829.5,4.99,0.00,29.8,28.7,00.0,38.8,31.5,08.5,0001.7,0029.59,0021.89,0020.75
2021-09-07 09:28:00,,0829.5,5.00,0.00,29.8,28.7,00.0,38.8,31.5,08.5,0001.7,0029.30,0021.90,0020.81
2021-09-07 09:29:00,,0829.5,5.00,0.00,29.8,28.8,00.0,38.8,31.5,08.5,0001.8,0028.98,0021.87,0020.81
2021-09-07 09:30:00,,0829.5,4.99,0.00,29.8,28.8,00.0,38.8,31.6,08.5,0001.9,0029.21,0021.90,0020.83
2021-09-07 09:31:00,,0829.6,5.00,0.00,29.9,28.8,00.0,38.9,31.6,08.5,0002.1,0029.34,0021.88,0020.84
2021-09-07 09:32:00,,0829.5,5.02,0.00,29.9,28.9,00.0,38.9,31.6,08.5,0001.8,0029.66,0021.90,0020.86
2021-09-07 09:33:00,,0829.5,4.98,0.00,29.9,28.9,00.0,38.9,31.6,08.5,0001.3,0029.64,0021.94,0020.90
2021-09-07 09:34:00,,0829.5,5.01,0.00,29.9,29.0,00.0,38.9,31.6,08.5,0001.3,0029.58,0021.97,0020.94
2021-09-07 09:35:00,,0829.5,5.00,0.00,29.9,28.7,00.0,38.9,31.6,08.3,0000.8,0030.14,0022.04,0020.98
2021-09-07 09:36:00,,0829.4,5.00,0.00,29.8,26.8,00.0,38.9,31.1,08.3,0000.2,0030.35,0022.13,0021.04
2021-09-07 09:37:00,,0829.5,5.01,0.00,29.7,26.3,00.0,38.9,31.0,08.4,0000.0,0030.37,0022.22,0021.12
2021-09-07 09:38:00,,0829.5,5.00,0.00,29.6,26.5,00.0,38.8,31.0,08.4,0000.2,0030.37,0022.27,0021.18
2021-09-07 09:39:00,,0829.6,5.01,0.00,29.6,27.0,00.0,38.8,31.1,08.5,0000.0,0031.42,0022.34,0021.22
2021-09-07 09:40:00,,0829.5,5.00,0.00,29.5,27.3,00.0,38.8,31.1,08.6,-000.0,0032.11,0022.43,0021.29
2021-09-07 09:41:00,,0829.5,5.01,0.00,29.6,27.6,00.0,38.8,31.2,08.6,-000.3,0032.28,0022.39,0021.31
2021-09-07 09:42:00,,0829.5,5.00,0.00,29.6,27.9,00.0,38.8,31.2,08.5,-000.3,0032.03,0022.38,0021.35
2021-09-07 09:43:00,,0829.5,4.99,0.00,29.6,28.0,00.0,38.7,31.2,08.5,-000.5,0031.71,0022.40,0021.40
2021-09-07 09:44:00,,0829.5,5.00,0.00,29.6,28.2,00.0,38.7,31.3,08.5,-000.1,0031.73,0022.43,0021.43
2021-09-07 09:45:00,,0829.5,5.01,0.00,29.6,28.3,00.0,38.7,31.3,08.6,-000.5,0031.68,0022.41,0021.42
2021-09-07 09:46:00,,0829.5,5.00,0.00,29.7,28.4,00.0,38.8,31.4,08.7,-000.4,0031.31,0022.39,0021.41
2021-09-07 09:47:00,,0829.6,4.99,0.00,29.7,28.5,00.0,38.8,31.4,08.7,-000.1,0031.64,0022.37,0021.39
2021-09-07 09:48:00,,0829.5,4.99,0.00,29.7,28.6,00.0,38.8,31.4,08.6,0000.3,0031.56,0022.32,0021.37
2021-09-07 09:49:00,,0829.6,5.01,0.00,29.7,28.7,00.0,38.8,31.5,08.5,0000.5,0031.44,0022.32,0021.35
2021-09-07 09:50:00,,0829.6,4.99,0.00,29.8,28.7,00.0,38.8,31.5,08.4,0000.8,0030.71,0022.28,0021.35
2021-09-07 09:51:00,,0829.6,5.01,0.00,29.8,28.7,00.0,38.8,31.5,08.5,0001.0,0030.95,0022.25,0021.34
2021-09-07 09:52:00,,0829.6,4.99,0.00,29.8,28.8,00.0,38.8,31.5,08.5,0000.9,0030.76,0022.30,0021.35
2021-09-07 09:53:00,,0829.5,5.01,0.00,29.8,28.8,00.0,38.8,31.6,08.4,0000.9,0030.95,0022.37,0021.35
2021-09-07 09:54:00,,0829.5,5.00,0.00,29.9,28.9,00.0,38.9,31.6,08.3,0001.9,0031.02,0022.38,0021.34
2021-09-07 09:55:00,,0829.6,5.01,0.00,29.9,28.9,00.0,38.9,31.6,08.3,0002.0,0031.11,0022.40,0021.34
2021-09-07 09:56:00,,0829.5,4.99,0.00,29.9,28.9,00.0,38.9,31.7,08.3,0002.5,0031.55,0022.45,0021.36
2021-09-07 09:57:00,,0829.5,5.00,0.00,29.9,29.0,00.0,38.9,31.7,08.3,0002.6,0031.49,0022.52,0021.40
2021-09-07 09:58:00,,0829.5,5.00,0.00,30.0,29.0,00.0,38.9,31.7,08.3,0003.1,0031.32,0022.55,0021.44
2021-09-07 09:59:00,,0829.5,5.00,0.00,30.0,28.7,00.0,39.0,31.6,08.4,0003.5,0032.43,0022.59,0021.46
